Weather Roundup
Issued by NWS Chicago, IL

Home | Current Version | Previous Version | Text Only | Print | Product List | Glossary On
Versions: 1 2 3 4 5 6 7 8 9 10 11 12 13 14 15 16 17 18 19 20 21 22 23 24 25 26 27 28 29 30 31 32 33 34 35 36 37 38 39 40 41 42 43 44 45 46 47 48 49 50
000
NZUS59 KLOT 011210
HRRLOT

CHICAGO AREA WEATHER ROUNDUP
NATIONAL WEATHER SERVICE CHICAGO/ROMEOVILLE IL
600 AM CST SUN FEB 01 2015

NOTE: "FAIR" INDICATES FEW OR NO CLOUDS BELOW 12,000 FEET WITH NO
SIGNIFICANT WEATHER AND/OR OBSTRUCTIONS TO VISIBILITY.

* THESE STATIONS ARE NOT UNDER NWS QUALITY CONTROL. THEY ALSO MAY NOT
  REPORT WEATHER SUCH AS PRECIPITATION OR FOG.

ILZ005-006-012>014-019>023-011300-
NORTHEAST ILLINOIS

CITY           SKY/WX    TMP DP  RH WIND       PRES   REMARKS
OHARE          SNOW      30  29  96 E10       30.00F VSB 1/2 WCI  21
6HR MIN TEMP:  30; 6HR MAX TEMP:  31; 6HR PCP:  0.23;

MIDWAY         LGT SNOW  33  31  92 E10       30.00F VSB 3/4 WCI  25
6HR MIN TEMP:  33; 6HR MAX TEMP:  33; 6HR PCP:  0.13;

AURORA         SNOW      32  29  88 E17       29.96F VSB 1/2 WCI  21
6HR MIN TEMP:  32; 6HR MAX TEMP:  33; 6HR PCP:  0.04;

LANSING*       LGT SNOW  32  32 100 E3        30.00F
JOLIET*        SNOW      32  32  99 E5        29.96F VSB 1/2 WCI  27
WAUKEGAN       LGT SNOW  28  27  96 NE18      30.04F VSB 3/4 WCI  15
6HR MIN TEMP:  28; 6HR MAX TEMP:  30; 6HR PCP: TRACE;

DUPAGE AIRPORT LGT SNOW  31  28  89 E16       29.98F VSB 3/4 WCI  20
6HR MIN TEMP:  31; 6HR MAX TEMP:  31; 6HR PCP:  0.06;

WHEELING       LGT SNOW  30  29  96 E12       30.03F VSB 3/4 WCI  20
6HR MIN TEMP:  30; 6HR MAX TEMP:  31; 6HR PCP: TRACE;

KANKAKEE*      LGT SNOW  32  32  99 E7        29.97F WCI  26
MORRIS*        LGT SNOW  32  32 100 E6        29.93F VSB 3/4 WCI  27
LEWIS AIRPORT* LGT SNOW  31  31 100 E8        29.96F VSB 1   WCI  24
NORTHERLY IS     N/A     31  30  96 E14         N/A  WCI  21
$$

WIZ051-052-058>065-066-070>072-011300-
SOUTHEAST WISCONSIN

CITY           SKY/WX    TMP DP  RH WIND       PRES   REMARKS
MILWAUKEE      LGT SNOW  25  21  85 NE23G30   30.09F VSB 3/4 WCI  10
6HR MIN TEMP:  25; 6HR MAX TEMP:  29; 6HR PCP:  0.13;

KENOSHA*       SNOW      27  25  92 NE21      30.06S VSB 1/2 WCI  13
RACINE*        LGT SNOW  26  22  84 NE21      30.09S VSB 3/4 WCI  12
BURLINGTON     LGT SNOW  24  22  93 NE16      30.05F WCI  11
WAUKESHA       LGT SNOW  21  19  93 NE12G23   30.08F VSB 1   WCI   9
WEST BEND      LGT SNOW  21  19  93 NE22      30.11F WCI   5
$$

INZ001>003-010>013-019-020-011300-
NORTHWEST INDIANA

CITY           SKY/WX    TMP DP  RH WIND       PRES   REMARKS
GARY*          LGT SNOW  34  32  93 CALM      30.03F
MICHIGAN CITY* NOT AVBL
RENSSELAER*    NOT AVBL
VALPARAISO     SNOW      32  31  96 E7        30.01F VSB 1/2 WCI  26
$$

LMZ740>746-011300-
SOUTHERN LAKE MICHIGAN

STATION/POSITION TIME  SKY/WX   TEMP WIND        PRES    VSBY
                                AIR  DIR/SP/G
                 (UTC)          (F)  (DEG/KT/KT) (MB)    (MI)
HARRISON CRIB    1200            31   80/ 18/ 21   N/A
BURNHAM HARBOR   1200            31   80/ 11/ 14   N/A
CALUMET HARBOR   1200            31   80/  9/ 12   N/A
BURNS HARBOR     NOT AVBL
MICHIGAN CITY    1200            30   70/  7/  8   N/A
$$

ABBREVIATIONS USED IN REMARKS
   TC - TEMPERATURE IN CELSIUS
  WCI - WIND CHILL INDEX
   HX - HEAT INDEX
  VSB - VISIBILITY
$$


USA.gov is the U.S. government's official web portal to all federal, state and local government web resources and services.